Location: Northcutt
(34.7304°N, 84.4305°W)
Time: 10:48:40
(UTC+00:00)

A-11 Canister half - Pass Details

Date: 03 October 2022
Orbit: 1524 x 1685 km, 47.3° (Epoch: 30 November)

Event Time Altitude Azimuth Distance (km) Brightness Sun altitude
Rises 05:54:17 0° 288° (WNW) 4,797 - -58.6°
Reaches altitude 10° 05:59:11 10° 268° (W) 3,841 - -58.3°
Maximum altitude 06:04:04 15° 237° (WSW) 3,480 - -58.1°
Drops below altitude 10° 06:09:02 10° 206° (SSW) 3,893 - -57.7°
Sets 06:14:08 0° 185° (S) 4,900 - -57.3°
